Language selection

Weather shortcuts

Lake of the Woods: Past 24 Hour Conditions

 

Marathon Airport

02:00 PM EDT 14 June 2024
Disclaimer

This table is a summary of hourly weather conditions for the past 24 hours.
Please note that these observations might not always be representative of weather conditions over their associated marine area.

Date / Time
(EDT)
Wind(knots) Conditions Visibility(km) Pressure(kPa) Air tempC) Relative humidity(%) Dew pointC)
14 June 2024
14:00 NNW 7 gusts 18 Partly Cloudy 24 101.9 16 41 2
13:00 N 10 Partly Cloudy 24 102.0 15 44 3
12:00 NNE 5 gusts 15 Sunny 24 102.0 14 45 2
11:00 NNE 6 gusts 15 Sunny 24 101.9 12 48 2
10:00 NE 9 gusts 15 Mainly Sunny 24 101.9 11 53 1
9:00 ENE 9 gusts 16 Partly Cloudy 24 101.9 9 56 1
8:00 ENE 8 Partly Cloudy 24 101.8 8 68 2
7:00 ENE 6 N/A N/A 101.8 7 77 3
6:00 ENE 9 gusts 15 N/A N/A 101.6 6 85 4
5:00 NE 10 gusts 18 N/A N/A 101.5 7 81 4
4:00 NE 10 gusts 18 N/A N/A 101.5 8 83 6
3:00 NNE 9 gusts 16 N/A N/A 101.4 10 83 7
2:00 N 9 N/A N/A 101.3 10 96 9
1:00 SE 2 N/A N/A 101.2 6 97 5
0:00 S 1 N/A N/A 101.1 7 97 7
13 June 2024
23:00 SSE 2 N/A N/A 101.0 9 96 9
22:00 N 4 N/A N/A 101.0 13 83 11
21:00 N 5 N/A N/A 100.9 15 75 11
20:00 SW 2 N/A N/A 100.8 13 89 11
19:00 W 3 N/A N/A 100.7 11 96 10
18:00 SW 3 N/A N/A 100.7 12 96 11
17:00 WNW 5 Mostly Cloudy 24 100.5 18 75 13
16:00 SSW 2 Mist 5 100.6 14 95 13
15:00 WSW 2 Thunderstorm with rainshowers 24 100.5 11 96 10
14:00 SW 4 Mostly Cloudy 24 100.4 17 66 11

Zoom-in to make a selection

Map of Great Lakes - Lake Superior marine weather areas Mid Superior - 45001 East Superior - 45004 West Superior - 45006 Slate Island - 45136 Lake Of the Woods - 45148 Kenora Airport Royal Island Armstrong Airport Caribou Island Marathon Airport Pukaskwa National Park Thunder Bay Airport Welcome Island Little Flatland Island Sault Ste. Marie Airport Wawa Airport
Legend:
buoy Buoy
land station Land Station

Great Lakes - Lake Superior Area

Another Region

Features

New Predicting and Alerting Coastal Flooding Program

Find out about coastal flooding coverage, forecasts and warnings in your region

Date modified: